User: anonymous   Login
Location: Penton Mewsey
(51.2167°N, 1.5167°W)
Time: 12:33:50
(UTC+00:00)
Language:

SL-8 R/B - Orbit

View from above orbital plane
View from above orbital plane
View from above satellite
View from above satellite

Ground track
Ground track

The orbit data is extracted from the following two-line orbital elements,

1 33066U 08031G   21131.84973063 -.00000139  00000-0  95676-5 0  9990
2 33066  48.4438 285.4015 0007400  15.8280 344.2861 14.69754812692250
Epoch (UTC): 11 May 2021 20:23:36
Eccentricity: 0.0007400
inclination: 48.4438°
perigee height: 656 km
apogee height: 667 km
right ascension of ascending node: 285.4015°
argument of perigee: 15.8280°
revolutions per day: 14.69754812
mean anomaly at epoch: 344.2861°
orbit number at epoch: 69225

The dashed part of the orbit path shows where the satellite is in the earth's shadow,  

DLR